Regional Weather Roundup
Issued by NWS

Home | Current Version | Previous Version | Graphics & Text | Print | Product List | Glossary On
Versions: 1 2 3 4 5 6 7 8 9 10 11 12 13 14 15 16 17 18 19 20 21 22 23 24 25 26 27 28 29 30 31 32 33 34 35 36 37 38 39 40 41 42 43 44 45 46 47 48 49 50
000
ASUS43 KBIS 250702
RWRND

NORTH DAKOTA REGIONAL WEATHER ROUNDUP
NATIONAL WEATHER SERVICE BISMARCK ND
200 AM CDT WED APR 25 2018

NOTE: "FAIR" INDICATES FEW OR NO CLOUDS BELOW 12,000 FEET WITH NO
SIGNIFICANT WEATHER AND/OR OBSTRUCTIONS TO VISIBILITY.


NDZ001>003-009>011-017-250800-
NORTHWEST NORTH DAKOTA

CITY           SKY/WX    TMP DP  RH WIND       PRES   REMARKS
WILLISTON      CLEAR     44  34  67 SW8       30.23F
MINOT          CLEAR     47  25  42 SW15      30.22F
$$

NDZ018>021-031>035-040>046-250800-
SOUTHWEST NORTH DAKOTA

CITY           SKY/WX    TMP DP  RH WIND       PRES   REMARKS
BISMARCK       CLEAR     39  27  62 CALM      30.31F
DICKINSON      CLEAR     37  26  64 SW12      30.27F
GARRISON         N/A     37  30  75 SW10      30.26F
HETTINGER ARPT CLEAR     31  25  78 CALM      30.33F
$$

NDZ004>008-012>016-024-026-027-054-250800-
NORTHEAST NORTH DAKOTA

CITY           SKY/WX    TMP DP  RH WIND       PRES   REMARKS
GRAND FORKS    FAIR      32  30  92 S9        30.28F
DEVILS LAKE    FAIR      34  26  72 S5        30.27F
$$

NDZ022-023-025-028>030-036>039-047>053-250800-
SOUTHEAST NORTH DAKOTA

CITY           SKY/WX    TMP DP  RH WIND       PRES   REMARKS
FARGO          FAIR      31  28  89 S3        30.31F
JAMESTOWN      CLEAR     33  27  78 S6        30.30F
$$





USA.gov is the U.S. government's official web portal to all federal, state and local government web resources and services.